�N����,����,�~����,�C��,���x,�C��,����,���ϕ���,�ő�u�ԕ���,�ő厞����,���˗�,�I�_���x,�n�����x,�ő啗���N��,DTYPE
"19/10/09","00:10",0.0,17.3,78.2,1010.4,306.6,1.7,3.7,337.6,0.00,13.5,20.4,"00:04:48",1
"19/10/09","00:20",0.0,17.4,77.0,1010.4,301.0,1.6,4.1,318.2,0.00,13.4,20.3,"00:11:28",1
"19/10/09","00:30",0.0,17.6,76.6,1010.4,335.1,2.5,5.7,338.4,0.00,13.5,20.1,"00:24:16",1
"19/10/09","00:40",0.0,17.5,76.6,1010.4,322.8,2.3,3.7,328.0,0.00,13.4,20.0,"00:31:52",1
"19/10/09","00:50",0.0,17.3,76.7,1010.4,308.4,2.0,4.0,322.9,0.00,13.2,20.2,"00:46:24",1
"19/10/09","01:00",0.0,17.2,76.2,1010.2,321.3,2.0,3.6,324.3,0.00,13.0,20.0,"00:50:08",1
"19/10/09","01:10",0.0,16.9,77.9,1010.4,308.5,2.0,3.3,319.3,0.00,13.1,20.0,"01:00:48",1
"19/10/09","01:20",0.0,16.8,79.3,1010.7,328.9,1.6,2.4,332.6,0.00,13.2,20.0,"01:19:52",1
"19/10/09","01:30",0.0,16.9,80.0,1010.7,326.5,1.6,2.6,333.5,0.00,13.5,19.9,"01:23:36",1
"19/10/09","01:40",0.0,17.0,80.5,1010.7,326.0,1.7,2.4,339.5,0.00,13.7,20.2,"01:39:12",1
"19/10/09","01:50",0.0,17.1,80.6,1010.9,328.0,1.8,3.4,333.8,0.00,13.8,20.1,"01:41:20",1
"19/10/09","02:00",0.0,17.3,80.6,1010.7,323.5,2.0,3.9,338.8,0.00,14.0,20.0,"01:50:40",1
"19/10/09","02:10",0.0,17.1,80.8,1010.7,324.6,1.5,2.7,336.7,0.00,13.8,20.2,"02:00:16",1
"19/10/09","02:20",0.0,16.9,81.5,1010.7,313.9,1.2,2.4,326.0,0.00,13.8,20.0,"02:11:52",1
"19/10/09","02:30",0.0,16.6,82.2,1011.2,312.7,1.0,1.9,336.1,0.00,13.6,20.1,"02:25:20",1
"19/10/09","02:40",0.0,16.2,83.7,1011.2,327.2,0.8,1.3,327.6,0.00,13.5,20.0,"02:38:00",1
"19/10/09","02:50",0.0,16.3,85.1,1011.4,322.3,1.6,3.5,320.2,0.00,13.8,19.9,"02:45:20",1
"19/10/09","03:00",0.0,16.7,84.8,1011.2,328.5,2.5,4.2,342.4,0.00,14.2,19.9,"02:56:02",1
"19/10/09","03:10",0.0,16.9,83.5,1011.4,323.3,2.2,3.6,312.7,0.00,14.1,19.7,"03:03:28",1
"19/10/09","03:20",0.0,16.9,82.6,1010.9,313.2,2.1,4.4,305.1,0.00,14.0,19.8,"03:18:16",1
"19/10/09","03:30",0.2,17.0,81.1,1010.9,325.0,2.5,5.7,325.4,0.00,13.8,19.7,"03:21:28",1
"19/10/09","03:40",0.0,16.8,80.6,1011.2,322.3,1.8,4.0,326.0,0.00,13.5,19.7,"03:33:36",1
"19/10/09","03:50",0.0,16.7,80.2,1011.4,324.3,2.3,4.1,331.4,0.00,13.3,19.8,"03:42:32",1
"19/10/09","04:00",0.0,16.5,80.1,1011.4,324.0,1.7,3.2,326.4,0.00,13.1,19.8,"03:50:08",1
"19/10/09","04:10",0.0,16.3,80.1,1011.4,314.0,2.0,3.4,332.8,0.00,12.9,19.8,"04:00:56",1
"19/10/09","04:20",0.0,16.0,80.5,1011.4,315.9,1.7,2.8,333.1,0.00,12.7,19.5,"04:14:08",1
"19/10/09","04:30",0.0,15.7,81.1,1011.4,320.4,1.8,3.2,333.0,0.00,12.5,19.6,"04:21:44",1
"19/10/09","04:40",0.0,15.4,82.0,1011.9,318.8,1.8,3.6,351.3,0.00,12.4,19.6,"04:32:48",1
"19/10/09","04:50",0.0,15.1,83.1,1011.9,307.7,1.3,2.0,312.1,0.00,12.3,19.5,"04:41:04",1
"19/10/09","05:00",0.0,14.9,83.9,1011.9,318.0,1.3,2.5,329.6,0.00,12.2,19.5,"04:56:00",1
"19/10/09","05:10",0.0,14.9,84.5,1012.1,314.3,1.6,2.6,351.9,0.00,12.4,19.4,"05:04:24",1
"19/10/09","05:20",0.0,14.7,85.1,1012.3,318.3,1.5,2.4,327.4,0.00,12.3,19.2,"05:10:48",1
"19/10/09","05:30",0.0,14.4,85.4,1012.1,320.4,1.3,1.9,333.5,0.00,12.0,19.2,"05:20:16",1
"19/10/09","05:40",0.0,14.1,86.5,1012.3,318.9,1.3,2.2,323.4,0.00,11.9,19.2,"05:39:44",1
"19/10/09","05:50",0.0,14.3,87.3,1012.3,319.7,1.7,2.9,332.0,0.00,12.3,18.9,"05:44:48",1
"19/10/09","06:00",0.0,14.4,87.3,1012.6,324.1,1.7,3.2,324.9,0.00,12.4,19.1,"05:53:28",1
"19/10/09","06:10",0.0,14.3,87.0,1012.6,318.7,1.6,3.1,334.0,0.00,12.2,19.0,"06:07:20",1
"19/10/09","06:20",0.0,14.1,86.9,1012.6,321.8,1.3,2.4,330.6,0.00,12.0,19.1,"06:12:16",1
"19/10/09","06:30",0.0,13.9,88.1,1012.8,324.3,1.3,2.1,337.8,0.00,12.0,18.8,"06:28:36",1
"19/10/09","06:40",0.0,13.7,87.7,1012.6,328.1,1.5,2.4,336.7,0.00,11.7,19.0,"06:31:28",1
"19/10/09","06:50",0.0,13.7,88.3,1013.0,321.5,1.5,2.4,308.7,0.00,11.8,19.0,"06:44:40",1
"19/10/09","07:00",0.0,13.6,88.2,1013.0,330.3,1.1,2.1,334.0,0.00,11.7,19.1,"06:55:04",1
"19/10/09","07:10",0.0,13.8,89.0,1012.8,327.1,1.3,2.5,331.3,0.00,12.1,18.8,"07:08:32",1
"19/10/09","07:20",0.0,14.2,88.3,1013.3,333.9,1.1,1.7,332.5,0.01,12.3,18.9,"07:10:48",1
"19/10/09","07:30",0.0,15.0,87.5,1012.8,327.1,1.1,2.1,332.1,0.02,13.0,18.9,"07:20:56",1
"19/10/09","07:40",0.0,15.3,85.2,1013.3,347.9,0.7,1.4,349.4,0.03,12.9,18.8,"07:33:44",1
"19/10/09","07:50",0.0,15.9,83.4,1013.3,357.0,0.8,1.7,342.4,0.05,13.1,19.2,"07:44:08",1
"19/10/09","08:00",0.0,16.2,80.5,1013.0,347.8,1.0,1.9,337.3,0.07,12.9,18.9,"07:59:36",1
"19/10/09","08:10",0.0,17.1,76.3,1013.8,326.4,1.0,2.1,336.8,0.09,12.9,19.1,"08:03:20",1
"19/10/09","08:20",0.0,17.4,74.3,1014.0,314.3,0.8,1.7,330.9,0.12,12.8,19.3,"08:18:16",1
"19/10/09","08:30",0.0,17.6,71.5,1014.0,262.1,1.0,1.7,289.6,0.15,12.4,19.4,"08:20:40",1
"19/10/09","08:40",0.0,18.0,70.2,1014.0,303.6,0.6,1.4,341.4,0.17,12.5,19.2,"08:34:56",1
"19/10/09","08:50",0.0,18.0,64.6,1013.8,12.0,1.3,4.4,336.9,0.20,11.3,19.5,"08:48:32",1
"19/10/09","09:00",0.0,18.3,63.2,1014.0,21.3,1.7,4.4,103.0,0.23,11.2,19.6,"08:54:16",1
"19/10/09","09:10",0.0,18.4,61.9,1013.3,35.0,1.6,3.9,4.1,0.25,11.0,19.7,"09:06:36",1
"19/10/09","09:20",0.0,18.8,60.9,1013.5,14.9,1.6,4.0,107.8,0.28,11.1,19.8,"09:10:08",1
"19/10/09","09:30",0.0,19.4,60.8,1013.5,350.1,1.8,4.3,344.9,0.30,11.7,20.1,"09:29:44",1
"19/10/09","09:40",0.0,19.5,60.0,1013.8,352.3,1.7,3.4,359.5,0.33,11.6,20.5,"09:39:04",1
"19/10/09","09:50",0.0,19.7,58.2,1013.3,347.1,1.3,3.2,318.9,0.35,11.3,20.5,"09:40:08",1
"19/10/09","10:00",0.0,19.8,57.2,1012.8,25.0,1.3,3.4,19.5,0.37,11.1,20.5,"09:50:08",1
"19/10/09","10:10",0.0,19.7,55.1,1013.0,353.7,1.7,3.9,54.9,0.39,10.5,20.7,"10:06:40",1
"19/10/09","10:20",0.0,20.4,54.0,1012.6,47.8,1.5,3.4,117.5,0.41,10.8,21.0,"10:19:28",1
"19/10/09","10:30",0.0,20.3,52.0,1012.3,28.0,1.8,4.0,334.6,0.43,10.2,21.2,"10:21:52",1
"19/10/09","10:40",0.0,20.3,50.8,1012.3,28.9,1.8,3.9,326.6,0.44,9.8,21.4,"10:36:40",1
"19/10/09","10:50",0.0,20.9,52.1,1012.6,21.5,2.0,4.3,328.2,0.45,10.8,21.5,"10:43:44",1
"19/10/09","11:00",0.0,20.9,49.9,1012.1,7.0,1.7,4.4,347.3,0.47,10.1,21.8,"10:58:48",1
"19/10/09","11:10",0.0,20.9,47.5,1012.1,13.9,2.1,5.4,334.7,0.48,9.4,21.9,"11:00:32",1
"19/10/09","11:20",0.0,21.4,47.8,1012.3,3.8,1.6,3.9,76.6,0.49,9.9,22.1,"11:17:04",1
"19/10/09","11:30",0.0,21.5,48.1,1012.1,4.0,1.5,3.7,326.5,0.50,10.1,22.4,"11:20:02",1
"19/10/09","11:40",0.0,21.9,48.5,1011.9,355.3,2.1,5.1,347.4,0.50,10.6,22.7,"11:30:32",1
"19/10/09","11:50",0.0,21.7,46.1,1011.9,18.3,2.1,4.8,339.6,0.51,9.7,22.8,"11:49:20",1
"19/10/09","12:00",0.0,21.4,44.5,1011.6,357.4,2.2,6.0,327.7,0.51,8.9,22.9,"11:50:32",1
"19/10/09","12:10",0.0,22.3,48.3,1011.4,350.2,1.5,3.5,49.8,0.52,10.9,23.0,"12:01:52",1
"19/10/09","12:20",0.0,21.8,45.0,1011.2,21.2,1.7,4.5,4.2,0.52,9.4,23.1,"12:17:20",1
"19/10/09","12:30",0.0,21.8,43.5,1011.2,15.5,1.6,3.7,26.6,0.52,8.9,23.5,"12:24:24",1
"19/10/09","12:40",0.0,22.4,44.9,1010.9,345.7,1.2,2.8,352.1,0.52,9.9,23.5,"12:39:52",1
"19/10/09","12:50",0.0,22.6,44.5,1010.9,10.0,1.6,3.6,32.2,0.51,9.9,23.6,"12:42:56",1
"19/10/09","13:00",0.0,22.1,42.6,1010.9,6.2,1.8,3.5,6.5,0.51,8.9,23.7,"12:54:16",1
"19/10/09","13:10",0.0,22.0,42.7,1010.0,23.7,1.6,4.5,59.5,0.51,8.8,23.9,"13:05:28",1
"19/10/09","13:20",0.0,22.7,44.5,1010.4,336.8,2.1,4.4,341.1,0.50,10.0,24.1,"13:12:08",1
"19/10/09","13:30",0.0,22.9,43.9,1010.2,17.0,1.5,3.2,358.3,0.49,10.0,24.1,"13:20:24",1
"19/10/09","13:40",0.2,22.7,42.4,1010.4,13.5,1.6,4.5,331.7,0.48,9.3,24.3,"13:30:56",1
"19/10/09","13:50",0.0,22.7,43.0,1010.0,332.8,2.2,5.0,337.2,0.47,9.5,24.4,"13:44:56",1
"19/10/09","14:00",0.0,22.8,43.7,1009.5,334.4,1.8,3.6,347.8,0.46,9.9,24.4,"13:53:28",1
"19/10/09","14:10",0.0,22.8,44.0,1009.7,336.7,2.5,4.5,329.3,0.45,10.0,24.7,"14:08:48",1
"19/10/09","14:20",0.0,22.9,39.4,1009.5,1.6,2.0,4.7,330.9,0.43,8.4,24.6,"14:13:28",1
"19/10/09","14:30",0.0,22.7,38.7,1009.3,14.3,2.5,5.7,355.5,0.41,8.0,24.8,"14:27:04",1
"19/10/09","14:40",0.0,23.1,40.7,1009.5,353.7,2.3,4.7,346.6,0.40,9.1,24.4,"14:30:40",1
"19/10/09","14:50",0.0,22.6,37.1,1009.3,339.4,2.5,5.1,343.9,0.38,7.3,24.5,"14:48:24",1
"19/10/09","15:00",0.0,22.8,39.3,1009.5,330.0,2.8,5.9,311.2,0.36,8.3,24.7,"14:51:28",1
"19/10/09","15:10",0.0,22.6,38.4,1009.3,345.0,2.3,4.5,345.3,0.33,7.8,24.7,"15:04:00",1
"19/10/09","15:20",0.0,22.5,40.2,1009.3,341.3,2.6,5.4,339.6,0.31,8.4,24.6,"15:11:44",1
"19/10/09","15:30",0.0,22.4,39.3,1009.5,331.4,2.7,5.6,340.0,0.29,7.9,24.4,"15:29:52",1
"19/10/09","15:40",0.0,22.5,41.8,1009.5,327.7,2.5,6.2,342.8,0.26,8.9,24.4,"15:37:28",1
"19/10/09","15:50",0.0,22.2,42.4,1009.5,331.2,2.6,7.7,348.8,0.24,8.9,24.3,"15:48:16",1
"19/10/09","16:00",0.0,22.1,41.6,1009.7,336.6,2.6,4.8,350.8,0.21,8.5,24.3,"15:52:16",1
"19/10/09","16:10",0.0,22.0,42.6,1009.7,345.2,2.2,4.0,339.8,0.19,8.8,24.3,"16:01:20",1
"19/10/09","16:20",0.0,22.2,42.4,1009.5,335.0,2.7,5.2,327.1,0.16,8.9,24.1,"16:14:24",1
"19/10/09","16:30",0.0,21.9,43.6,1009.5,343.5,2.7,6.0,344.6,0.14,9.0,24.1,"16:22:00",1
"19/10/09","16:40",0.0,21.4,42.1,1009.7,339.3,2.7,4.7,350.6,0.11,8.0,23.8,"16:39:44",1
"19/10/09","16:50",0.0,21.0,41.4,1010.0,335.0,3.1,7.4,335.9,0.09,7.4,23.7,"16:42:00",1
"19/10/09","17:00",0.0,20.8,43.7,1010.0,333.7,2.7,4.9,337.2,0.06,8.1,23.5,"16:52:48",1
"19/10/09","17:10",0.0,20.5,45.2,1010.2,339.2,2.6,5.1,339.7,0.04,8.3,23.3,"17:01:44",1
"19/10/09","17:20",0.0,20.0,47.6,1009.7,338.8,2.3,4.5,333.1,0.02,8.6,23.2,"17:18:40",1
"19/10/09","17:30",0.0,19.6,50.1,1010.0,342.1,2.8,5.8,357.0,0.00,9.0,22.8,"17:25:36",1
"19/10/09","17:40",0.0,19.1,52.5,1010.2,334.8,3.0,6.8,334.8,0.00,9.2,22.7,"17:32:32",1
"19/10/09","17:50",0.0,18.7,54.6,1010.4,339.7,2.6,5.5,330.5,0.00,9.4,22.6,"17:46:40",1
"19/10/09","18:00",0.0,18.2,57.0,1010.4,327.6,2.5,4.9,344.5,0.00,9.6,22.3,"17:52:16",1
"19/10/09","18:10",0.0,17.9,58.7,1010.4,329.8,2.5,4.2,337.0,0.00,9.7,22.2,"18:00:16",1
"19/10/09","18:20",0.0,17.5,60.5,1010.7,332.4,2.1,4.0,333.0,0.00,9.8,21.8,"18:18:24",1
"19/10/09","18:30",0.0,17.3,62.1,1010.9,338.1,2.7,5.0,346.8,0.00,10.0,22.0,"18:22:32",1
"19/10/09","18:40",0.0,17.2,62.7,1011.2,339.7,2.8,5.5,355.6,0.00,10.1,21.8,"18:35:36",1
"19/10/09","18:50",0.0,17.0,63.3,1011.4,344.5,2.5,6.2,349.9,0.00,10.0,21.7,"18:44:56",1
"19/10/09","19:00",0.0,16.8,64.3,1011.4,336.6,2.2,4.9,356.0,0.00,10.1,21.6,"18:59:52",1
"19/10/09","19:10",0.0,16.7,64.7,1011.4,337.7,2.3,5.9,313.8,0.00,10.1,21.3,"19:01:28",1
"19/10/09","19:20",0.0,16.4,65.8,1011.6,333.2,2.5,4.7,346.4,0.00,10.0,21.2,"19:16:00",1
"19/10/09","19:30",0.0,16.3,66.3,1011.9,334.0,2.8,5.9,323.6,0.00,10.1,21.1,"19:24:58",1
"19/10/09","19:40",0.0,16.2,66.6,1011.6,327.3,2.3,5.1,339.3,0.00,10.0,21.1,"19:37:52",1
"19/10/09","19:50",0.0,16.1,66.9,1012.1,321.9,1.8,4.8,324.7,0.00,10.0,21.1,"19:45:04",1
"19/10/09","20:00",0.0,15.8,67.9,1012.1,296.0,1.2,2.9,316.8,0.00,9.9,20.8,"19:53:12",1
"19/10/09","20:10",0.0,15.7,68.0,1012.6,276.1,1.1,2.5,241.2,0.00,9.9,20.7,"20:05:36",1
"19/10/09","20:20",0.0,15.2,69.4,1012.6,266.6,0.7,2.0,241.7,0.00,9.7,20.6,"20:19:12",1
"19/10/09","20:30",0.0,15.1,70.0,1012.6,288.3,1.1,3.1,250.7,0.00,9.7,20.4,"20:24:08",1
"19/10/09","20:40",0.0,15.1,70.4,1013.0,285.2,1.2,2.7,331.0,0.00,9.8,20.4,"20:36:56",1
"19/10/09","20:50",0.0,14.8,70.7,1012.8,289.4,0.8,1.7,317.9,0.00,9.6,20.3,"20:48:32",1
"19/10/09","21:00",0.0,14.6,72.3,1012.8,312.7,1.3,2.2,323.1,0.00,9.7,20.3,"20:57:44",1
"19/10/09","21:10",0.0,14.6,72.6,1012.6,300.0,1.1,2.8,332.0,0.00,9.8,20.2,"21:08:08",1
"19/10/09","21:20",0.0,14.5,72.8,1012.6,289.8,1.2,2.5,324.9,0.00,9.7,20.1,"21:17:28",1
"19/10/09","21:30",0.0,14.4,73.9,1012.6,301.0,1.5,3.2,328.7,0.00,9.8,20.1,"21:28:00",1
"19/10/09","21:40",0.0,14.6,74.0,1013.0,324.7,2.3,3.9,332.4,0.00,10.1,19.8,"21:34:16",1
"19/10/09","21:50",0.0,14.5,74.7,1012.6,331.4,1.8,3.1,349.9,0.00,10.1,19.7,"21:44:08",1
"19/10/09","22:00",0.0,14.5,75.2,1012.6,336.7,2.1,3.5,321.2,0.00,10.2,19.8,"21:51:44",1
"19/10/09","22:10",0.0,14.3,76.0,1012.8,331.7,2.3,4.2,327.5,0.00,10.2,19.7,"22:01:44",1
"19/10/09","22:20",0.0,14.5,76.0,1012.8,330.3,3.1,5.4,319.3,0.00,10.4,19.5,"22:16:24",1
"19/10/09","22:30",0.0,14.4,75.7,1013.0,331.3,2.7,5.4,337.5,0.00,10.2,19.5,"22:20:24",1
"19/10/09","22:40",0.0,14.3,76.2,1012.8,331.0,2.3,3.7,340.8,0.00,10.2,19.7,"22:39:44",1
"19/10/09","22:50",0.0,14.5,75.8,1012.6,332.2,2.6,4.8,332.3,0.00,10.3,19.7,"22:43:22",1
"19/10/09","23:00",0.0,14.3,75.5,1012.6,331.9,2.1,3.5,341.2,0.00,10.1,19.3,"22:53:52",1
"19/10/09","23:10",0.0,14.2,76.3,1012.8,328.3,2.3,3.9,308.3,0.00,10.1,19.3,"23:03:36",1
"19/10/09","23:20",0.0,14.2,76.7,1012.8,329.0,2.2,3.7,338.6,0.00,10.2,19.3,"23:11:12",1
"19/10/09","23:30",0.0,14.1,76.8,1012.8,331.4,2.2,3.7,329.7,0.00,10.1,19.3,"23:20:24",1
"19/10/09","23:40",0.0,13.8,78.0,1012.6,330.8,1.7,3.7,306.3,0.00,10.1,19.2,"23:30:32",1
"19/10/09","23:50",0.0,13.6,78.9,1012.6,336.8,1.7,3.1,338.3,0.00,10.1,19.1,"23:48:00",1
"19/10/09","24:00",0.0,13.4,79.9,1012.6,332.4,2.0,3.4,333.5,0.00,10.0,19.2,"23:56:46",1
